User: anonymous   Login
Location: *
(51.1248°S, 108.4023°W)
Time: 02:11:57
(UTC+00:00)
Language:

H-2A R/B - Orbit

View from above orbital plane
View from above orbital plane
View from above satellite
View from above satellite

Ground track
Ground track

The orbit data is extracted from the following two-line orbital elements,

1 28932U 06002B   21268.07379935  .00000576  00000-0  58528-4 0  9994
2 28932  98.3244 290.7665 0086866 241.0428 180.9906 14.92680541850440
Epoch (UTC): 25 September 2021 01:46:16
Eccentricity: 0.0086866
inclination: 98.3244°
perigee height: 529 km
apogee height: 650 km
right ascension of ascending node: 290.7665°
argument of perigee: 241.0428°
revolutions per day: 14.92680541
mean anomaly at epoch: 180.9906°
orbit number at epoch: 85044

The dashed part of the orbit path shows where the satellite is in the earth's shadow,  

DLR